Location: Ottawa
(45.4167°N, 75.7000°W)
Time: 16:31:35
(UTC-04:00)

Vanguard 2 Rocket - Visible Passes

Search period start: 22 July 2018 00:00
Search period end: 01 August 2018 00:00
Orbit: 554 x 3327 km, 32.9° (Epoch: 22 July)

Date Brightness Start Highest point End Pass type
(mag) Time Alt. Az. Time Alt. Az. Time Alt. Az.
22 Jul 8.9 02:15:42 14° SE 02:15:42 14° SE 02:18:10 10° ESE visible
22 Jul 8.4 04:21:31 14° SW 04:26:26 34° SSE 04:35:46 10° ESE visible
23 Jul 8.0 03:25:26 24° S 03:27:11 27° SSE 03:34:15 10° ESE visible
24 Jul 8.5 02:29:23 18° SE 02:29:23 18° SE 02:32:54 10° ESE visible
24 Jul 8.4 04:35:11 12° SW 04:40:26 33° S 04:49:27 10° ESE visible
25 Jul 7.9 03:39:10 24° SSW 03:41:06 28° S 03:48:11 10° ESE visible
26 Jul 8.3 02:43:11 21° SE 02:43:11 21° SE 02:47:11 10° ESE visible
26 Jul 8.4 04:49:06 10° WSW 04:54:30 29° S 05:02:52 10° SE visible
27 Jul 7.9 03:53:05 22° SSW 03:55:08 27° S 04:01:53 10° ESE visible
28 Jul 8.2 02:57:13 21° SSE 02:57:13 21° SSE 03:01:09 10° ESE visible
28 Jul 8.6 05:03:40 10° WSW 05:08:37 24° S 05:15:53 10° SE visible
29 Jul 8.0 04:07:14 20° SSW 04:09:14 23° S 04:15:18 10° SE visible
30 Jul 8.3 03:11:31 20° SSE 03:11:31 20° SSE 03:14:53 10° SE visible
31 Jul 8.2 04:21:42 16° SSW 04:23:23 18° S 04:28:12 10° SSE visible
